FW5238 Weather Reports


Display with metric or nautical units.
time (UTC)temp
F
wind
direction
speed
MPH
gust
MPH
rain 1hr
in
rain 24hr
in
rain mn
in
humidity
%
barometer
mb
20260503013032 49 0 0.0 0.0 0.00 0.03 0.03 86 1010.7
20260503012515 49 0 0.0 0.0 0.00 0.03 0.03 86 1010.7
20260503012019 49 0 0.0 0.0 0.00 0.03 0.03 86 1010.7
20260503011529 49 0 0.0 0.0 0.00 0.03 0.03 86 1010.6
20260503011014 49 0 0.0 0.0 0.00 0.03 0.03 85 1010.6
20260503010512 49 0 0.0 0.0 0.00 0.03 0.03 85 1010.5
20260503010031 49 0 0.0 0.0 0.00 0.03 0.03 85 1010.6
20260503005517 49 0 0.0 1.0 0.00 0.03 0.03 85 1010.4
20260503005014 49 0 0.0 1.0 0.00 0.03 0.03 85 1010.6
20260503004555 49 0 0.0 1.0 0.00 0.03 0.03 85 1010.6
20260503004018 49 0 0.0 1.0 0.00 0.03 0.03 85 1010.4
20260503003513 49 0 0.0 1.0 0.00 0.03 0.03 85 1010.4
20260503003030 49 0 0.0 1.0 0.00 0.03 0.03 85 1010.3
20260503002514 49 0 0.0 0.0 0.00 0.03 0.03 85 1010.3
20260503002015 49 0 0.0 2.0 0.00 0.03 0.03 85 1010.3
20260503001532 49 0 0.0 2.0 0.00 0.03 0.03 84 1010.3
20260503001016 50 0 0.0 2.0 0.00 0.03 0.03 84 1010.3
20260503000514 50 0 0.0 2.0 0.00 0.03 0.03 84 1010.2
20260503000033 50 0 0.0 2.0 0.00 0.03 0.03 84 1010.3
20260502235514 50 0 0.0 1.0 0.00 0.03 0.03 84 1010.2
20260502235014 50 0 0.0 2.0 0.00 0.03 0.03 84 1010.3
20260502234531 50 0 0.0 2.0 0.00 0.03 0.03 84 1010.2
20260502234014 50 0 0.0 2.0 0.00 0.03 0.03 84 1010.3
20260502233514 50 0 0.0 2.0 0.00 0.03 0.03 84 1010.4
20260502233031 50 0 0.0 1.0 0.00 0.03 0.03 84 1010.4
20260502232514 50 0 0.0 2.0 0.00 0.03 0.03 84 1010.4
20260502232017 50 0 0.0 2.0 0.00 0.03 0.03 83 1010.4
20260502231532 50 0 0.0 2.0 0.00 0.03 0.03 83 1010.4
20260502231017 50 0 0.0 3.0 0.00 0.03 0.03 83 1010.4
20260502230514 50 217 0.0 3.0 0.00 0.03 0.03 83 1010.5
20260502230030 50 0 0.0 3.0 0.00 0.03 0.03 83 1010.5
20260502225513 50 150 0.0 4.0 0.00 0.03 0.03 83 1010.5
20260502225010 50 0 1.0 4.0 0.00 0.03 0.03 83 1010.4
20260502224532 50 146 1.0 4.0 0.00 0.03 0.03 83 1010.3
20260502224011 51 150 0.0 3.0 0.00 0.03 0.03 83 1010.4
20260502223514 51 0 0.0 2.0 0.00 0.03 0.03 83 1010.3
20260502223035 51 0 0.0 3.0 0.00 0.03 0.03 83 1010.3
20260502222515 51 0 0.0 3.0 0.00 0.03 0.03 82 1010.2
20260502222014 51 0 1.0 4.0 0.00 0.03 0.03 82 1010.3
20260502221529 51 0 0.0 4.0 0.00 0.03 0.03 81 1010.3
20260502221014 51 245 0.0 4.0 0.00 0.03 0.03 81 1010.2
20260502220511 51 166 1.0 4.0 0.00 0.03 0.03 81 1010.3
20260502220036 51 157 0.0 4.0 0.00 0.03 0.03 81 1010.3
20260502215514 51 0 0.0 8.0 0.00 0.03 0.03 81 1010.2
20260502215014 51 139 1.0 8.0 0.00 0.03 0.03 81 1010.1
20260502214535 51 180 1.0 7.0 0.00 0.03 0.03 80 1010.2
20260502214014 52 140 1.0 6.0 0.00 0.03 0.03 80 1010.2
20260502213511 52 103 1.0 6.0 0.00 0.03 0.03 81 1010.3
20260502213032 52 156 1.0 3.0 0.00 0.03 0.03 81 1010.2
20260502212511 52 123 0.0 4.0 0.00 0.03 0.03 81 1010.3
20260502212020 51 139 0.0 6.0 0.00 0.03 0.03 81 1010.1
20260502211543 51 0 0.0 6.0 0.00 0.03 0.03 81 1010.3
20260502211013 51 0 2.0 9.0 0.00 0.03 0.03 80 1010.4
20260502210513 51 181 1.0 9.0 0.00 0.03 0.03 81 1010.3
20260502210031 51 200 1.0 9.0 0.00 0.03 0.03 81 1010.2
20260502205514 51 207 1.0 9.0 0.00 0.03 0.03 81 1010.2
20260502205014 51 159 1.0 6.0 0.00 0.03 0.03 81 1010.1
20260502204531 52 187 0.0 8.0 0.00 0.03 0.03 81 1010.1
20260502204014 52 209 2.0 8.0 0.00 0.03 0.03 81 1010.2
20260502203514 52 163 0.0 6.0 0.00 0.03 0.03 81 1010.3
20260502203031 52 0 1.0 7.0 0.00 0.03 0.03 80 1010.3
20260502202511 52 101 0.0 7.0 0.00 0.03 0.03 80 1010.4
20260502202014 52 186 3.0 7.0 0.00 0.03 0.03 80 1010.4
20260502201532 52 0 1.0 6.0 0.01 0.03 0.03 80 1010.4
20260502201014 52 103 2.0 8.0 0.01 0.03 0.03 80 1010.5
20260502200516 52 234 2.0 10.0 0.01 0.03 0.03 81 1010.4
20260502200032 52 67 1.0 10.0 0.01 0.03 0.03 81 1010.4
20260502195516 52 134 4.0 10.0 0.01 0.03 0.03 80 1010.6
20260502195013 52 126 2.0 9.0 0.01 0.03 0.03 81 1010.6
20260502194532 52 186 1.0 6.0 0.01 0.03 0.03 81 1010.6
20260502194017 52 97 0.0 8.0 0.01 0.03 0.03 81 1010.8
20260502193514 52 74 2.0 10.0 0.01 0.03 0.03 80 1011.0
20260502193034 52 148 1.0 10.0 0.01 0.03 0.03 80 1010.9
20260502192515 52 98 1.0 9.0 0.01 0.03 0.03 80 1010.9
20260502192013 51 192 1.0 9.0 0.00 0.02 0.02 79 1011.1
20260502191531 52 177 3.0 9.0 0.00 0.02 0.02 78 1011.2
20260502191022 52 220 1.0 4.0 0.00 0.02 0.02 81 1011.1
20260502190514 52 0 1.0 7.0 0.00 0.02 0.02 81 1011.3
20260502190033 52 225 2.0 9.0 0.00 0.02 0.02 80 1011.2
20260502185518 52 172 2.0 9.0 0.00 0.02 0.02 79 1011.1
20260502185014 52 150 1.0 9.0 0.01 0.02 0.02 80 1011.2
20260502184543 52 225 1.0 8.0 0.01 0.02 0.02 80 1011.2
20260502184021 52 182 3.0 8.0 0.02 0.02 0.02 80 1011.1
20260502183515 52 228 2.0 7.0 0.02 0.02 0.02 83 1011.2
20260502183030 52 171 1.0 5.0 0.02 0.02 0.02 85 1011.1
20260502182516 51 155 0.0 2.0 0.02 0.02 0.02 86 1011.1
20260502182013 51 0 0.0 1.0 0.02 0.02 0.02 86 1011.3
20260502181532 51 0 0.0 1.0 0.02 0.02 0.02 85 1011.4
20260502181017 51 0 0.0 4.0 0.02 0.02 0.02 85 1011.5
20260502180514 51 0 0.0 7.0 0.02 0.02 0.02 85 1011.4
20260502170514 56 79 2.0 11.0 0.00 0.00 0.00 70 1011.6
20260502164016 58 77 1.0 7.0 0.00 0.00 0.00 61 1011.2
20260502163513 58 94 1.0 9.0 0.00 0.00 0.00 62 1011.3
20260502163032 58 122 2.0 14.0 0.00 0.00 0.00 63 1011.2
20260502162514 58 179 3.0 14.0 0.00 0.00 0.00 65 1011.1
20260502162014 57 147 1.0 8.0 0.00 0.00 0.00 65 1011.2
20260502161529 57 130 1.0 4.0 0.00 0.00 0.00 67 1011.2
20260502161014 57 0 0.0 5.0 0.00 0.00 0.00 67 1011.4
20260502160516 56 178 1.0 8.0 0.00 0.00 0.00 66 1011.4
20260502152014 55 0 0.0 3.0 0.00 0.00 0.00 73 1011.8
20260502151532 55 0 1.0 3.0 0.00 0.00 0.00 73 1012.0
20260502151015 55 153 1.0 4.0 0.00 0.00 0.00 73 1011.9
20260502150514 55 0 1.0 8.0 0.00 0.00 0.00 72 1011.6
20260502130514 52 281 1.0 4.0 0.00 0.00 0.00 76 1012.8
20260502123514 51 185 0.0 4.0 0.00 0.00 0.00 77 1012.8
20260502123032 51 0 0.0 7.0 0.00 0.00 0.00 77 1012.4
20260502122515 51 175 1.0 7.0 0.00 0.00 0.00 77 1012.4
20260502122020 52 179 1.0 10.0 0.00 0.00 0.00 76 1012.5
20260502121530 51 198 2.0 10.0 0.00 0.00 0.00 78 1012.5
20260502121015 51 0 2.0 8.0 0.00 0.00 0.00 78 1012.3
20260502120514 50 167 2.0 7.0 0.00 0.00 0.00 77 1012.3
20260502115511 50 0 1.0 6.0 0.00 0.00 0.00 78 1012.2
20260502115014 50 0 0.0 6.0 0.00 0.00 0.00 79 1012.1
20260502114530 49 0 1.0 5.0 0.00 0.00 0.00 80 1011.9
20260502114010 48 0 0.0 3.0 0.00 0.00 0.00 80 1012.0
20260502113514 48 142 0.0 4.0 0.00 0.00 0.00 80 1011.9
20260502113028 48 182 0.0 4.0 0.00 0.00 0.00 80 1012.0
20260502112511 48 0 0.0 3.0 0.00 0.00 0.00 81 1011.9
20260502112011 48 0 0.0 3.0 0.00 0.00 0.00 81 1011.9
20260502111532 47 141 1.0 3.0 0.00 0.00 0.00 81 1011.9
20260502111012 47 0 0.0 2.0 0.00 0.00 0.00 81 1012.1
20260502110514 47 0 0.0 1.0 0.00 0.00 0.00 82 1012.2
20260502110030 47 0 0.0 1.0 0.00 0.00 0.00 82 1012.1
20260502105517 47 161 0.0 1.0 0.00 0.00 0.00 82 1011.9
20260502105013 46 0 0.0 1.0 0.00 0.00 0.00 82 1012.0
20260502104540 46 0 0.0 0.0 0.00 0.00 0.00 82 1011.9
20260502104012 46 0 0.0 2.0 0.00 0.00 0.00 82 1011.8
20260502103513 46 0 0.0 2.0 0.00 0.00 0.00 83 1011.8
20260502103041 46 159 0.0 3.0 0.00 0.00 0.00 83 1011.7
20260502102511 45 0 0.0 3.0 0.00 0.00 0.00 83 1011.8
20260502102010 45 0 0.0 3.0 0.00 0.00 0.00 84 1011.6
20260502101541 45 0 0.0 3.0 0.00 0.00 0.00 84 1011.7
20260502101014 44 173 0.0 2.0 0.00 0.00 0.00 84 1011.8
20260502100513 44 172 0.0 2.0 0.00 0.00 0.00 85 1011.8
20260502091012 44 0 0.0 0.0 0.00 0.00 0.00 85 1011.6
20260502090513 44 0 0.0 0.0 0.00 0.00 0.00 85 1011.6
20260502071528 43 0 0.0 0.0 0.00 0.00 0.00 82 1011.5
20260502071010 43 0 0.0 0.0 0.00 0.00 0.00 82 1011.5
20260502070511 44 0 0.0 0.0 0.00 0.00 0.00 82 1011.5
20260502070028 44 0 0.0 0.0 0.00 0.00 0.00 81 1011.5
20260502065510 43 0 0.0 0.0 0.00 0.00 0.00 82 1011.6
20260502065017 43 0 0.0 0.0 0.00 0.00 0.00 82 1011.5
20260502064537 43 0 0.0 0.0 0.00 0.00 0.00 82 1011.5
20260502064010 43 0 0.0 0.0 0.00 0.00 0.00 82 1011.6
20260502063512 43 0 0.0 0.0 0.00 0.00 0.00 82 1011.6
20260502063032 43 0 0.0 0.0 0.00 0.00 0.00 82 1011.7
20260502062514 43 0 0.0 0.0 0.00 0.00 0.00 82 1011.6
20260502062016 43 0 0.0 0.0 0.00 0.00 0.00 82 1011.6
20260502061534 43 0 0.0 0.0 0.00 0.00 0.00 82 1011.7
20260502061013 43 0 0.0 0.0 0.00 0.00 0.00 82 1011.7
20260502060513 43 0 0.0 0.0 0.00 0.00 0.00 81 1011.8
20260502060031 43 0 0.0 0.0 0.00 0.00 0.00 81 1011.7
20260502055513 43 0 0.0 0.0 0.00 0.00 0.00 80 1011.7
20260502055010 43 0 0.0 0.0 0.00 0.00 0.00 80 1011.8
20260502054532 43 0 0.0 0.0 0.00 0.00 0.00 80 1011.8
20260502054016 43 0 0.0 0.0 0.00 0.00 0.00 79 1011.9
20260502053510 43 0 0.0 0.0 0.00 0.00 0.00 79 1011.9
20260502053030 44 0 0.0 0.0 0.00 0.00 0.00 78 1011.9
20260502052514 44 0 0.0 0.0 0.00 0.00 0.00 78 1011.9
20260502052010 44 0 0.0 0.0 0.00 0.00 0.00 78 1011.7
20260502051535 44 0 0.0 0.0 0.00 0.00 0.00 78 1011.8
20260502051009 44 0 0.0 0.0 0.00 0.00 0.00 78 1011.9
20260502050510 44 0 0.0 0.0 0.00 0.00 0.00 77 1011.9
20260502050030 44 0 0.0 0.0 0.00 0.00 0.00 77 1011.8
20260502045514 44 0 0.0 0.0 0.00 0.00 0.00 77 1011.9
20260502045014 44 0 0.0 0.0 0.00 0.00 0.00 78 1011.8
20260502044532 44 0 0.0 0.0 0.00 0.00 0.00 77 1011.9
20260502044013 44 0 0.0 0.0 0.00 0.00 0.00 77 1012.0
20260502043510 44 0 0.0 0.0 0.00 0.00 0.00 77 1012.1
20260502043031 44 0 0.0 0.0 0.00 0.00 0.00 76 1012.0
20260502042510 44 0 0.0 0.0 0.00 0.00 0.00 76 1012.0
20260502042013 44 0 0.0 0.0 0.00 0.00 0.00 76 1011.9
20260502041535 45 0 0.0 0.0 0.00 0.00 0.00 76 1012.0
20260502041013 45 0 0.0 0.0 0.00 0.00 0.00 76 1012.0
20260502040515 45 0 0.0 0.0 0.00 0.00 0.00 76 1012.0
20260502040030 45 0 0.0 0.0 0.00 0.00 0.00 76 1011.9
20260502035512 45 0 0.0 0.0 0.00 0.00 0.00 75 1012.0
20260502035010 45 0 0.0 0.0 0.00 0.00 0.00 74 1011.9
20260502034533 45 0 0.0 0.0 0.00 0.00 0.00 75 1011.8
20260502034010 45 0 0.0 0.0 0.00 0.00 0.00 75 1011.9
20260502033514 45 0 0.0 0.0 0.00 0.00 0.00 73 1011.8
20260502033031 45 0 0.0 0.0 0.00 0.00 0.00 73 1011.9
20260502032510 45 0 0.0 0.0 0.00 0.00 0.00 73 1011.9
20260502032013 45 0 0.0 0.0 0.00 0.00 0.00 73 1011.9
20260502031532 45 0 0.0 0.0 0.00 0.00 0.00 72 1011.8
20260502031013 46 0 0.0 0.0 0.00 0.00 0.00 72 1011.7
20260502030516 46 0 0.0 0.0 0.00 0.00 0.00 73 1011.7
20260502030032 46 0 0.0 0.0 0.00 0.00 0.00 72 1011.8
20260502025510 46 0 0.0 0.0 0.00 0.00 0.00 72 1011.5
20260502025011 46 0 0.0 0.0 0.00 0.00 0.00 72 1011.6
20260502024532 46 0 0.0 0.0 0.00 0.00 0.00 71 1011.6
20260502024011 46 0 0.0 0.0 0.00 0.00 0.00 73 1011.6
20260502023511 45 0 0.0 0.0 0.00 0.00 0.00 71 1011.7
20260502023028 45 0 0.0 0.0 0.00 0.00 0.00 72 1011.7
20260502022513 45 0 0.0 0.0 0.00 0.00 0.00 71 1011.6
20260502022014 45 0 0.0 0.0 0.00 0.00 0.00 71 1011.7
20260502021534 45 0 0.0 0.0 0.00 0.00 0.00 70 1011.6
20260502021013 45 0 0.0 0.0 0.00 0.00 0.00 70 1011.5
20260502020513 46 0 0.0 0.0 0.00 0.00 0.00 70 1011.5
20260502020032 46 0 0.0 0.0 0.00 0.00 0.00 69 1011.6
20260502015514 46 0 0.0 1.0 0.00 0.00 0.00 69 1011.5
20260502015016 46 0 0.0 1.0 0.00 0.00 0.00 69 1011.4
20260502014533 46 0 0.0 0.0 0.00 0.00 0.00 67 1011.4
20260502014011 47 0 0.0 0.0 0.00 0.00 0.00 66 1011.4
20260502013514 47 0 0.0 0.0 0.00 0.00 0.00 65 1011.3